Sitename,Method,WaterSampleID,SamplingDate,Species,AphiaID,CellsPerLiter
Loch Maddy,Target species,WC-03-205,2003-03-12,Alexandrium total,109470,20
Loch Maddy,Target species,WC-03-256,2003-03-27,Alexandrium total,109470,0
Loch Maddy,Target species,WC-03-284,2003-04-06,Alexandrium total,109470,20
Loch Maddy,Target species,WC-03-292,2003-04-09,Alexandrium total,109470,0
Loch Maddy,Target species,WC-03-306,2003-04-18,Alexandrium total,109470,0
Loch Maddy,Target species,WC-03-311,2003-04-23,Alexandrium total,109470,20
Loch Maddy,Target species,WC-03-331,2003-05-02,Alexandrium total,109470,40
Loch Maddy,Target species,WC-03-366,2003-05-10,Alexandrium total,109470,0
Loch Maddy,Target species,WC-03-395,2003-06-04,Alexandrium total,109470,0
Loch Maddy,Target species,WC-03-423,2003-06-16,Alexandrium total,109470,0
Loch Maddy,Target species,WC-03-448,2003-06-24,Alexandrium total,109470,0
Loch Maddy,Target species,WC-03-473,2003-07-03,Alexandrium total,109470,0
Loch Maddy,Target species,WC-03-486,2003-07-08,Alexandrium total,109470,0
Loch Maddy,Target species,WC-03-509,2003-07-16,Alexandrium total,109470,20
Loch Maddy,Target species,WC-03-526,2003-07-22,Alexandrium total,109470,60
Loch Maddy,Target species,WC-03-553,2003-07-29,Alexandrium total,109470,0
Loch Maddy,Target species,WC-03-569,2003-08-06,Alexandrium total,109470,0
Loch Maddy,Target species,WC-03-594,2003-08-14,Alexandrium total,109470,40
Loch Maddy,Target species,WC-03-652,2003-09-02,Alexandrium total,109470,0
Loch Maddy,Target species,WC-03-741,2003-09-16,Alexandrium total,109470,0
Loch Maddy,Target species,WC-03-753,2003-10-11,Alexandrium total,109470,0
Loch Maddy,Target species,WC-03-764,2003-10-16,Alexandrium total,109470,0
Loch Maddy,Target species,WC-03-784,2003-10-23,Alexandrium total,109470,20
Loch Maddy,Target species,WC-03-793,2003-10-28,Alexandrium total,109470,0
Loch Maddy,Target species,WC-03-804,2003-11-06,Alexandrium total,109470,0
Loch Maddy,Target species,WC-03-809,2003-11-12,Alexandrium total,109470,0
Loch Maddy,Target species,WC-03-825,2003-11-20,Alexandrium total,109470,0
Loch Maddy,Target species,WC-03-849,2003-11-29,Alexandrium total,109470,0
Loch Maddy,Target species,WC-03-874,2003-12-05,Alexandrium total,109470,0
Loch Maddy,Target species,WC-03-866,2003-12-10,Alexandrium total,109470,0
Loch Maddy,Target species,WC-04-12,2004-01-09,Alexandrium total,109470,0
Loch Maddy,Target species,WC-04-30,2004-01-17,Alexandrium total,109470,0
Loch Maddy,Target species,WC-04-40,2004-01-23,Alexandrium total,109470,0
Loch Maddy,Target species,WC-04-43,2004-01-30,Alexandrium total,109470,0
Loch Maddy,Target species,WC-04-53,2004-02-04,Alexandrium total,109470,0
Loch Maddy,Target species,WC-04-74,2004-02-11,Alexandrium total,109470,0
Loch Maddy,Target species,WC-04-79,2004-02-18,Alexandrium total,109470,0
Loch Maddy,Target species,WC-04-101,2004-02-27,Alexandrium total,109470,0
Loch Maddy,Target species,WC-04-98,2004-03-02,Alexandrium total,109470,0
Loch Maddy,Target species,WC-04-128,2004-03-17,Alexandrium total,109470,20
Loch Maddy,Target species,WC-04-136,2004-03-24,Alexandrium total,109470,0
Loch Maddy,Target species,WC-04-160,2004-04-13,Alexandrium total,109470,20
Loch Maddy,Target species,WC-04-189,2004-04-25,Alexandrium total,109470,0
Loch Maddy,Target species,WC-04-199,2004-05-01,Alexandrium total,109470,0
Loch Maddy,Target species,WC-04-206,2004-05-08,Alexandrium total,109470,0
Loch Maddy,Target species,WC-04-217,2004-05-13,Alexandrium total,109470,0
Loch Maddy,Target species,WC-04-246,2004-05-27,Alexandrium total,109470,20
Loch Maddy,Target species,WC-04-281,2004-06-01,Alexandrium total,109470,0
Loch Maddy,Target species,WC-04-262,2004-06-05,Alexandrium total,109470,0
Loch Maddy,Target species,WC-04-296,2004-06-21,Alexandrium total,109470,60
Loch Maddy,Target species,WC-04-316,2004-07-01,Alexandrium total,109470,0
Loch Maddy,Target species,WC-04-363,2004-07-24,Alexandrium total,109470,40
Loch Maddy,Target species,WC-04-375,2004-07-28,Alexandrium total,109470,20
Loch Maddy,Target species,WC-04-388,2004-08-04,Alexandrium total,109470,0
Loch Maddy,Target species,WC-04-405,2004-08-10,Alexandrium total,109470,0
Loch Maddy,Target species,WC-04-429,2004-08-21,Alexandrium total,109470,0
Loch Maddy,Target species,WC-04-456,2004-08-31,Alexandrium total,109470,0
Loch Maddy,Target species,WC-04-468,2004-09-07,Alexandrium total,109470,0
Loch Maddy,Target species,WC-04-485,2004-09-15,Alexandrium total,109470,0
Loch Maddy,Target species,WC-04-514,2004-09-29,Alexandrium total,109470,0
Loch Maddy,Target species,WC-04-533,2004-10-11,Alexandrium total,109470,0
Loch Maddy,Target species,WC-04-552,2004-10-20,Alexandrium total,109470,0
Loch Maddy,Target species,WC-04-601,2004-11-16,Alexandrium total,109470,0
Loch Maddy,Target species,WC-04-608,2004-11-22,Alexandrium total,109470,0
Loch Maddy,Target species,WC-04-623,2004-12-01,Alexandrium total,109470,0
Loch Maddy,Target species,WC-04-629,2004-12-07,Alexandrium total,109470,0
Loch Maddy,Target species,WC-04-641,2004-12-15,Alexandrium total,109470,0
Loch Maddy,Target species,WC-05-29,2005-01-29,Alexandrium total,109470,0
Loch Maddy,Target species,WC-05-46,2005-02-11,Alexandrium total,109470,0
Loch Maddy,Target species,WC-05-58,2005-02-22,Alexandrium total,109470,0
Loch Maddy,Target species,WC-05-64,2005-02-28,Alexandrium total,109470,0
Loch Maddy,Target species,WC-05-69,2005-03-07,Alexandrium total,109470,0
Loch Maddy,Target species,WC-05-91,2005-03-25,Alexandrium total,109470,0
Loch Maddy,Target species,WC-05-95,2005-03-30,Alexandrium total,109470,0
Loch Maddy,Target species,WC-05-109,2005-04-05,Alexandrium total,109470,0
Loch Maddy,Target species,WC-05-125,2005-04-13,Alexandrium total,109470,0
Loch Maddy,Target species,WC-05-141,2005-04-22,Alexandrium total,109470,0
Loch Maddy,Target species,WC-05-172,2005-05-06,Alexandrium total,109470,0
Loch Maddy,Target species,WC-05-186,2005-05-12,Alexandrium total,109470,0
Loch Maddy,Target species,WC-05-195,2005-05-17,Alexandrium total,109470,0
Loch Maddy,Target species,WC-05-212,2005-05-24,Alexandrium total,109470,0
Loch Maddy,Target species,WC-05-230,2005-06-04,Alexandrium total,109470,0
Loch Maddy,Target species,WC-05-244,2005-06-11,Alexandrium total,109470,20
Loch Maddy,Target species,WC-05-253,2005-06-15,Alexandrium total,109470,40
Loch Maddy,Target species,WC-05-268,2005-06-21,Alexandrium total,109470,20
Loch Maddy,Target species,WC-05-285,2005-07-01,Alexandrium total,109470,120
Loch Maddy,Target species,WC-05-345,2005-07-06,Alexandrium total,109470,80
Loch Maddy,Target species,WC-05-355,2005-07-13,Alexandrium total,109470,100
Loch Maddy,Target species,WC-05-371,2005-07-20,Alexandrium total,109470,900
Loch Maddy,Target species,WC-05-376,2005-07-27,Alexandrium total,109470,220
Loch Maddy,Target species,WC-05-392,2005-08-04,Alexandrium total,109470,0
Loch Maddy,Target species,WC-05-396,2005-08-10,Alexandrium total,109470,20
Loch Maddy,Target species,WC-05-399,2005-08-18,Alexandrium total,109470,100
Loch Maddy,Target species,WC-05-417,2005-08-31,Alexandrium total,109470,40
Loch Maddy,Target species,WC-05-430,2005-09-08,Alexandrium total,109470,40
Loch Maddy,Target species,WC-05-443,2005-09-15,Alexandrium total,109470,0
Loch Maddy,Target species,WC-05-661,2005-11-21,Alexandrium total,109470,0
Loch Maddy,Target species,WC-05-669,2005-11-29,Alexandrium total,109470,0
Loch Maddy,Target species,WC-05-676,2005-12-08,Alexandrium total,109470,0
Loch Maddy,Target species,WC-05-754,2005-12-24,Alexandrium total,109470,0
Loch Maddy,Target species,WC-06-2,2006-01-03,Alexandrium total,109470,0
Loch Maddy,Target species,WC-06-9,2006-01-16,Alexandrium total,109470,0
Loch Maddy,Target species,WC-06-15,2006-01-25,Alexandrium total,109470,0
Loch Maddy,Target species,WC-06-21,2006-02-01,Alexandrium total,109470,0
Loch Maddy,Target species,WC-06-27,2006-02-09,Alexandrium total,109470,0
Loch Maddy,Target species,WC-06-32,2006-02-17,Alexandrium total,109470,0
Loch Maddy,Target species,WC-06-37,2006-02-21,Alexandrium total,109470,0
Loch Maddy,Target species,WC-06-45,2006-03-06,Alexandrium total,109470,20
Loch Maddy,Target species,WC-06-54,2006-03-21,Alexandrium total,109470,0
Loch Maddy,Target species,WC-06-72,2006-04-01,Alexandrium total,109470,0
Loch Maddy,Target species,WC-06-91,2006-04-14,Alexandrium total,109470,20
Loch Maddy,Target species,WC-06-94,2006-04-20,Alexandrium total,109470,0
Loch Maddy,Target species,WC-06-108,2006-04-28,Alexandrium total,109470,20
Loch Maddy,Target species,WC-06-119,2006-05-10,Alexandrium total,109470,120
Loch Maddy,Target species,WC-06-133,2006-05-17,Alexandrium total,109470,20
Loch Maddy,Target species,WC-06-251,2006-05-24,Alexandrium total,109470,0
Loch Maddy,Target species,WC-06-304,2006-06-01,Alexandrium total,109470,0
Loch Maddy,Target species,WC-06-310,2006-06-07,Alexandrium total,109470,0
Loch Maddy,Target species,WC-06-332,2006-06-14,Alexandrium total,109470,20
Loch Maddy,Target species,WC-06-339,2006-06-22,Alexandrium total,109470,20
Loch Maddy,Target species,WC-06-353,2006-06-29,Alexandrium total,109470,20
Loch Maddy,Target species,WC-06-356,2006-07-03,Alexandrium total,109470,60
Loch Maddy,Target species,WC-06-374,2006-07-18,Alexandrium total,109470,500
Loch Maddy,Target species,WC-06-390,2006-07-26,Alexandrium total,109470,2460
Loch Maddy,Target species,WC-06-397,2006-08-02,Alexandrium total,109470,1340
Loch Maddy,Target species,WC-06-410,2006-08-11,Alexandrium total,109470,20
Loch Maddy,Target species,WC-06-426,2006-08-17,Alexandrium total,109470,60
Loch Maddy,Target species,WC-06-441,2006-08-25,Alexandrium total,109470,0
Loch Maddy,Target species,WC-06-566,2006-10-04,Alexandrium total,109470,0
Loch Maddy,Target species,WC-06-574,2006-10-16,Alexandrium total,109470,180
Loch Maddy,Target species,WC-06-668,2006-11-02,Alexandrium total,109470,0
Loch Maddy,Target species,WC-06-676,2006-11-15,Alexandrium total,109470,0
Loch Maddy,Target species,WC-06-682,2006-11-22,Alexandrium total,109470,0
Loch Maddy,Target species,WC-06-729,2006-12-07,Alexandrium total,109470,0
Loch Maddy,Target species,WC-06-735,2006-12-15,Alexandrium total,109470,0
Loch Maddy,Target species,WC-07-8,2007-01-16,Alexandrium total,109470,0
Loch Maddy,Target species,WC-07-17,2007-02-02,Alexandrium total,109470,20
Loch Maddy,Target species,WC-07-41,2007-02-21,Alexandrium total,109470,0
Loch Maddy,Target species,WC-07-74,2007-03-22,Alexandrium total,109470,20
Loch Maddy,Target species,WC-07-87,2007-03-31,Alexandrium total,109470,0
Loch Maddy,Target species,WC-07-88,2007-04-02,Alexandrium total,109470,0
Loch Maddy,Target species,WC-07-106,2007-04-11,Alexandrium total,109470,0
Loch Maddy,Target species,WC-07-116,2007-04-17,Alexandrium total,109470,0
Loch Maddy,Target species,WC-07-149,2007-05-08,Alexandrium total,109470,0
Loch Maddy,Target species,WC-07-167,2007-05-24,Alexandrium total,109470,0
Loch Maddy,Target species,WC-07-177,2007-05-30,Alexandrium total,109470,0
Loch Maddy,Target species,WC-07-185,2007-06-04,Alexandrium total,109470,20
Loch Maddy,Target species,WC-07-205,2007-06-19,Alexandrium total,109470,0
Loch Maddy,Target species,WC-07-220,2007-07-02,Alexandrium total,109470,300
Loch Maddy,Target species,WC-07-226,2007-07-10,Alexandrium total,109470,80
Loch Maddy,Target species,WC-07-244,2007-07-23,Alexandrium total,109470,0
Loch Maddy,Target species,WC-07-257,2007-08-02,Alexandrium total,109470,20
Loch Maddy,Target species,WC-07-270,2007-08-10,Alexandrium total,109470,20
Loch Maddy,Target species,WC-07-299,2007-08-29,Alexandrium total,109470,0
Loch Maddy,Target species,WC-07-311,2007-09-06,Alexandrium total,109470,40
Loch Maddy,Target species,WC-07-321,2007-09-13,Alexandrium total,109470,20
Loch Maddy,Target species,WC-07-352,2007-10-12,Alexandrium total,109470,20
Loch Maddy,Target species,WC-07-356,2007-10-17,Alexandrium total,109470,0
Loch Maddy,Target species,WC-07-380,2007-11-03,Alexandrium total,109470,0
Loch Maddy,Target species,WC-07-391,2007-11-14,Alexandrium total,109470,0
Loch Maddy,Target species,WC-07-396,2007-11-23,Alexandrium total,109470,0
Loch Maddy,Target species,WC-07-407,2007-12-10,Alexandrium total,109470,0
Loch Maddy,Target species,WC-08-5,2008-01-12,Alexandrium total,109470,0
Loch Maddy,Target species,WC-08-22,2008-01-29,Alexandrium total,109470,0
Loch Maddy,Target species,WC-08-30,2008-02-05,Alexandrium total,109470,0
Loch Maddy,Target species,WC-08-42,2008-02-13,Alexandrium total,109470,0
Loch Maddy,Target species,WC-08-80,2008-03-18,Alexandrium total,109470,20
Loch Maddy,Target species,WC-08-82,2008-03-25,Alexandrium total,109470,0
Loch Maddy,Target species,WC-08-97,2008-03-31,Alexandrium total,109470,0
Loch Maddy,Target species,WC-08-108,2008-04-09,Alexandrium total,109470,20
Loch Maddy,Target species,WC-08-122,2008-04-15,Alexandrium total,109470,20
Loch Maddy,Target species,WC-08-141,2008-04-28,Alexandrium total,109470,20
Loch Maddy,Target species,WC-08-155,2008-05-07,Alexandrium total,109470,40
Loch Maddy,Target species,WC-08-167,2008-05-14,Alexandrium total,109470,0
Loch Maddy,Target species,WC-08-177,2008-05-23,Alexandrium total,109470,0
Loch Maddy,Target species,WC-08-189,2008-06-07,Alexandrium total,109470,0
Loch Maddy,Target species,WC-08-197,2008-06-14,Alexandrium total,109470,0
Loch Maddy,Target species,WC-08-203,2008-06-23,Alexandrium total,109470,0
Loch Maddy,Target species,WC-08-211,2008-07-03,Alexandrium total,109470,0
Loch Maddy,Target species,WC-08-222,2008-07-17,Alexandrium total,109470,0
Loch Maddy,Target species,WC-08-224,2008-07-21,Alexandrium total,109470,0
Loch Maddy,Target species,WC-08-233,2008-07-29,Alexandrium total,109470,0
Loch Maddy,Target species,WC-08-239,2008-08-08,Alexandrium total,109470,120
Loch Maddy,Target species,WC-08-253,2008-08-20,Alexandrium total,109470,240
Loch Maddy,Target species,WC-08-259,2008-08-27,Alexandrium total,109470,0
Loch Maddy,Target species,WC-08-263,2008-08-31,Alexandrium total,109470,20
Loch Maddy,Target species,WC-08-273,2008-09-12,Alexandrium total,109470,0
Loch Maddy,Target species,WC-08-283,2008-09-22,Alexandrium total,109470,0
Loch Maddy,Target species,WC-08-302,2008-10-09,Alexandrium total,109470,0
Loch Maddy,Target species,WC-08-343,2008-11-28,Alexandrium total,109470,0
Loch Maddy,Target species,WC-09-6,2009-01-07,Alexandrium total,109470,0
Loch Maddy,Target species,WC-09-24,2009-02-02,Alexandrium total,109470,0
Loch Maddy,Target species,WC-09-32,2009-02-11,Alexandrium total,109470,0
Loch Maddy,Target species,WC-09-40,2009-02-19,Alexandrium total,109470,0
Loch Maddy,Target species,WC-09-46,2009-02-23,Alexandrium total,109470,0
Loch Maddy,Target species,WC-09-52,2009-03-04,Alexandrium total,109470,0
Loch Maddy,Target species,WC-09-76,2009-04-04,Alexandrium total,109470,0
Loch Maddy,Target species,WC-09-85,2009-04-15,Alexandrium total,109470,0
Loch Maddy,Target species,WC-09-89,2009-04-20,Alexandrium total,109470,0
Loch Maddy,Target species,WC-09-113,2009-05-18,Alexandrium total,109470,0
Loch Maddy,Target species,WC-09-119,2009-05-22,Alexandrium total,109470,0
Loch Maddy,Target species,WC-09-124,2009-05-27,Alexandrium total,109470,20
Loch Maddy,Target species,WC-09-131,2009-06-01,Alexandrium total,109470,20
Loch Maddy,Target species,WC-09-152,2009-06-29,Alexandrium total,109470,420
Loch Maddy,Target species,WC-09-154,2009-07-03,Alexandrium total,109470,600
Loch Maddy,Target species,WC-09-158,2009-07-06,Alexandrium total,109470,300
Loch Maddy,Target species,WC-09-162,2009-07-10,Alexandrium total,109470,2000
Loch Maddy,Target species,WC-09-170,2009-07-18,Alexandrium total,109470,400
Loch Maddy,Target species,WC-09-175,2009-07-22,Alexandrium total,109470,0
Loch Maddy,Target species,WC-09-185,2009-08-02,Alexandrium total,109470,0
Loch Maddy,Target species,WC-09-190,2009-08-07,Alexandrium total,109470,40
Loch Maddy,Target species,WC-09-277,2009-12-03,Alexandrium total,109470,0
Loch Maddy,Target species,WC-09-285,2009-12-15,Alexandrium total,109470,0
Loch Maddy,Target species,WC-10-14,2010-01-10,Alexandrium total,109470,0
Loch Maddy,Target species,WC-10-16,2010-01-14,Alexandrium total,109470,0
Loch Maddy,Target species,WC-10-25,2010-01-25,Alexandrium total,109470,0
Loch Maddy,Target species,WC-10-28,2010-02-03,Alexandrium total,109470,0
Loch Maddy,Target species,WC-10-33,2010-02-11,Alexandrium total,109470,0
Loch Maddy,Target species,WC-10-83,2010-02-15,Alexandrium total,109470,40
Loch Maddy,Target species,WC-10-44,2010-03-02,Alexandrium total,109470,0
Loch Maddy,Target species,WC-10-52,2010-03-05,Alexandrium total,109470,0
Loch Maddy,Target species,WC-10-84,2010-03-11,Alexandrium total,109470,0
Loch Maddy,Target species,WC-10-85,2010-03-18,Alexandrium total,109470,0
Loch Maddy,Target species,WC-10-111,2010-04-22,Alexandrium total,109470,0
Loch Maddy,Target species,WC-10-112,2010-04-28,Alexandrium total,109470,0
Loch Maddy,Target species,WC-10-224,2010-05-26,Alexandrium total,109470,0
Loch Maddy,Target species,WC-10-113,2010-05-28,Alexandrium total,109470,0
Loch Maddy,Target species,WC-10-225,2010-06-23,Alexandrium total,109470,60
Loch Maddy,Target species,WC-11-243,2011-09-01,Alexandrium total,109470,0
Loch Maddy,Target species,WC-11-244,2011-09-02,Alexandrium total,109470,0
Loch Maddy,Target species,WC-12-166,2012-06-23,Alexandrium total,109470,0
Loch Maddy,Target species,WC-03-205,2003-03-12,Dinophysis acuminata species complex,109603,0
Loch Maddy,Target species,WC-03-256,2003-03-27,Dinophysis acuminata species complex,109603,0
Loch Maddy,Target species,WC-03-284,2003-04-06,Dinophysis acuminata species complex,109603,0
Loch Maddy,Target species,WC-03-292,2003-04-09,Dinophysis acuminata species complex,109603,0
Loch Maddy,Target species,WC-03-306,2003-04-18,Dinophysis acuminata species complex,109603,0
Loch Maddy,Target species,WC-03-311,2003-04-23,Dinophysis acuminata species complex,109603,0
Loch Maddy,Target species,WC-03-331,2003-05-02,Dinophysis acuminata species complex,109603,0
Loch Maddy,Target species,WC-03-366,2003-05-10,Dinophysis acuminata species complex,109603,0
Loch Maddy,Target species,WC-03-395,2003-06-04,Dinophysis acuminata species complex,109603,0
Loch Maddy,Target species,WC-03-423,2003-06-16,Dinophysis acuminata species complex,109603,0
Loch Maddy,Target species,WC-03-448,2003-06-24,Dinophysis acuminata species complex,109603,0
Loch Maddy,Target species,WC-03-473,2003-07-03,Dinophysis acuminata species complex,109603,200
Loch Maddy,Target species,WC-03-486,2003-07-08,Dinophysis acuminata species complex,109603,20
Loch Maddy,Target species,WC-03-509,2003-07-16,Dinophysis acuminata species complex,109603,60
Loch Maddy,Target species,WC-03-526,2003-07-22,Dinophysis acuminata species complex,109603,80
Loch Maddy,Target species,WC-03-553,2003-07-29,Dinophysis acuminata species complex,109603,0
Loch Maddy,Target species,WC-03-569,2003-08-06,Dinophysis acuminata species complex,109603,0
Loch Maddy,Target species,WC-03-594,2003-08-14,Dinophysis acuminata species complex,109603,0
Loch Maddy,Target species,WC-03-652,2003-09-02,Dinophysis acuminata species complex,109603,0
Loch Maddy,Target species,WC-03-741,2003-09-16,Dinophysis acuminata species complex,109603,0
Loch Maddy,Target species,WC-03-753,2003-10-11,Dinophysis acuminata species complex,109603,0
Loch Maddy,Target species,WC-03-764,2003-10-16,Dinophysis acuminata species complex,109603,0
Loch Maddy,Target species,WC-03-784,2003-10-23,Dinophysis acuminata species complex,109603,0
Loch Maddy,Target species,WC-03-793,2003-10-28,Dinophysis acuminata species complex,109603,0
Loch Maddy,Target species,WC-03-804,2003-11-06,Dinophysis acuminata species complex,109603,0
Loch Maddy,Target species,WC-03-809,2003-11-12,Dinophysis acuminata species complex,109603,0
Loch Maddy,Target species,WC-03-825,2003-11-20,Dinophysis acuminata species complex,109603,0
Loch Maddy,Target species,WC-03-849,2003-11-29,Dinophysis acuminata species complex,109603,0
Loch Maddy,Target species,WC-03-874,2003-12-05,Dinophysis acuminata species complex,109603,0
Loch Maddy,Target species,WC-03-866,2003-12-10,Dinophysis acuminata species complex,109603,0
Loch Maddy,Target species,WC-04-12,2004-01-09,Dinophysis acuminata species complex,109603,0
Loch Maddy,Target species,WC-04-30,2004-01-17,Dinophysis acuminata species complex,109603,0
Loch Maddy,Target species,WC-04-40,2004-01-23,Dinophysis acuminata species complex,109603,0
Loch Maddy,Target species,WC-04-43,2004-01-30,Dinophysis acuminata species complex,109603,0
Loch Maddy,Target species,WC-04-53,2004-02-04,Dinophysis acuminata species complex,109603,0
Loch Maddy,Target species,WC-04-74,2004-02-11,Dinophysis acuminata species complex,109603,0
Loch Maddy,Target species,WC-04-79,2004-02-18,Dinophysis acuminata species complex,109603,0
Loch Maddy,Target species,WC-04-101,2004-02-27,Dinophysis acuminata species complex,109603,0
Loch Maddy,Target species,WC-04-98,2004-03-02,Dinophysis acuminata species complex,109603,0
Loch Maddy,Target species,WC-04-128,2004-03-17,Dinophysis acuminata species complex,109603,0
Loch Maddy,Target species,WC-04-136,2004-03-24,Dinophysis acuminata species complex,109603,0
Loch Maddy,Target species,WC-04-160,2004-04-13,Dinophysis acuminata species complex,109603,0
Loch Maddy,Target species,WC-04-189,2004-04-25,Dinophysis acuminata species complex,109603,0
Loch Maddy,Target species,WC-04-199,2004-05-01,Dinophysis acuminata species complex,109603,0
Loch Maddy,Target species,WC-04-206,2004-05-08,Dinophysis acuminata species complex,109603,0
Loch Maddy,Target species,WC-04-217,2004-05-13,Dinophysis acuminata species complex,109603,0
Loch Maddy,Target species,WC-04-246,2004-05-27,Dinophysis acuminata species complex,109603,0
Loch Maddy,Target species,WC-04-281,2004-06-01,Dinophysis acuminata species complex,109603,0
Loch Maddy,Target species,WC-04-262,2004-06-05,Dinophysis acuminata species complex,109603,0
Loch Maddy,Target species,WC-04-296,2004-06-21,Dinophysis acuminata species complex,109603,0
Loch Maddy,Target species,WC-04-316,2004-07-01,Dinophysis acuminata species complex,109603,0
Loch Maddy,Target species,WC-04-363,2004-07-24,Dinophysis acuminata species complex,109603,60
Loch Maddy,Target species,WC-04-375,2004-07-28,Dinophysis acuminata species complex,109603,0
Loch Maddy,Target species,WC-04-388,2004-08-04,Dinophysis acuminata species complex,109603,20
Loch Maddy,Target species,WC-04-405,2004-08-10,Dinophysis acuminata species complex,109603,20
Loch Maddy,Target species,WC-04-429,2004-08-21,Dinophysis acuminata species complex,109603,0
Loch Maddy,Target species,WC-04-456,2004-08-31,Dinophysis acuminata species complex,109603,20
Loch Maddy,Target species,WC-04-468,2004-09-07,Dinophysis acuminata species complex,109603,40
Loch Maddy,Target species,WC-04-485,2004-09-15,Dinophysis acuminata species complex,109603,0
Loch Maddy,Target species,WC-04-514,2004-09-29,Dinophysis acuminata species complex,109603,0
Loch Maddy,Target species,WC-04-533,2004-10-11,Dinophysis acuminata species complex,109603,0
Loch Maddy,Target species,WC-04-552,2004-10-20,Dinophysis acuminata species complex,109603,0
Loch Maddy,Target species,WC-04-601,2004-11-16,Dinophysis acuminata species complex,109603,0
Loch Maddy,Target species,WC-04-608,2004-11-22,Dinophysis acuminata species complex,109603,0
Loch Maddy,Target species,WC-04-623,2004-12-01,Dinophysis acuminata species complex,109603,0
Loch Maddy,Target species,WC-04-629,2004-12-07,Dinophysis acuminata species complex,109603,0
Loch Maddy,Target species,WC-04-641,2004-12-15,Dinophysis acuminata species complex,109603,0
Loch Maddy,Target species,WC-05-29,2005-01-29,Dinophysis acuminata species complex,109603,0
Loch Maddy,Target species,WC-05-46,2005-02-11,Dinophysis acuminata species complex,109603,0